Location: Newark
(30.0333°N, 31.2167°E)
Time: 19:52:15
(UTC+00:00)

Tiros 1 - Pass Details

Date: 26 January 2020
Orbit: 631 x 664 km, 48.4° (Epoch: 22 February)

Event Time Altitude Azimuth Distance (km) Brightness Sun altitude
Rises 16:35:31 0° 314° (NW) 2,978 11.0 -15.1°
Reaches altitude 10° 16:37:52 10° 317° (NW) 2,069 10.1 -15.6°
Maximum altitude 16:42:38 66° 40° (NE) 718 7.1 -16.6°
Enters shadow 16:45:30 24° 117° (ESE) 1,377 8.4 -17.2°
Drops below altitude 10° 16:47:23 10° 123° (ESE) 2,071 - -17.6°
Sets 16:49:45 0° 126° (SE) 2,981 - -18.1°
